Meteo Giornale » Osservazioni meteo Stati Uniti (USA) » Coatesville

ore: 08:55 - Osservazioni Meteo Coatesville
Lat. 39° 59' N Lon. 75° 52' W Alt. 201 metri s.l.m.

coperto_pioggia

23 °C

Pioggia Foschia

Temp. 24 Ore

21 °C

26 °C

Nord

5.5 Km/h

Dew point 23 °C

Umidità 100 %

Visibilità  10 Km

Il sole sorge alle ore 06:31

Il sole tramonta alle ore 19:35

Data e Ora Cielo e Fenomeni T °C DP °C Um. % Pres. hPa Vis. km Vento km/h
Oggi h: 08:55 coperto_pioggia Pioggia Foschia 23 23 100 1016 10 N 5.5
Oggi h: 08:35 foschia Foschia 23 23 100 1017 10 O 7.4
Oggi h: 08:15 foschia Foschia 23 23 100 1016 8 N 5.5
Oggi h: 07:55 foschia Foschia 23 23 100 1016 10 N 5.5
Oggi h: 07:35 foschia Foschia 22 22 100 1017 5 N 0
Oggi h: 07:15 foschia Foschia 22 22 100 1017 6 N 0
Oggi h: 06:55 foschia Foschia 22 22 100 1017 5 N 0
Oggi h: 06:35 foschia Foschia 22 22 100 1016 5 N 5.5
Oggi h: 06:15 foschia Foschia 22 22 100 1017 8 O 9.3
Oggi h: 05:55 foschia Foschia 22 22 100 1017 8 O 7.4
Oggi h: 05:35 foschia Foschia 22 22 100 1016 8 N 5.5
Oggi h: 05:15 foschia Foschia 22 22 100 1016 10 N 5.5
Oggi h: 04:55 foschia Foschia 22 22 100 1017 10 N 5.5
Oggi h: 04:35 coperto_pioggia Pioggia 22 22 100 1017 11 O/NO 7.4
Oggi h: 04:15 coperto Coperto 22 22 100 1017 13 O 7.4
Oggi h: 03:55 foschia Foschia 22 22 100 1017 10 N 5.5
Oggi h: 03:35 molto_nuvoloso Molto Nuvoloso 22 22 100 1017 11 N 0
Oggi h: 03:15 coperto Coperto 22 22 100 1017 13 N 0
Oggi h: 02:55 coperto Coperto 22 22 100 1017 14 N 5.5
Oggi h: 02:35 coperto Coperto 22 22 100 1017 14 SO 7.4
Oggi h: 02:15 coperto Coperto 22 22 100 1017 14 N 5.5
Oggi h: 01:55 coperto Coperto 22 22 100 1017 10 N 5.5
Oggi h: 01:35 coperto Coperto 22 22 100 1018 10 N 0
Oggi h: 01:15 coperto Coperto 22 22 100 1018 10 N 0
Oggi h: 00:55 coperto Coperto 22 22 100 1018 10 N 0
Oggi h: 00:35 coperto Coperto 22 22 100 1018 10 N 0
Oggi h: 00:15 coperto_pioggia Pioggia 22 22 100 1018 14 N 0
Ieri h: 23:55 coperto Coperto 22 21 94 1018 10 N 0
Ieri h: 23:35 coperto Coperto 23 21 88 1018 10 N 5.5
Ieri h: 23:15 coperto Coperto 22 21 94 1018 10 N 0
Ieri h: 22:55 coperto Coperto 22 21 94 1019 10 N 0
Ieri h: 22:35 molto_nuvoloso Molto Nuvoloso 22 22 100 1018 10 N 0
Ieri h: 22:15 nuvoloso Nuvoloso 22 22 100 1018 10 N 0
Ieri h: 21:55 molto_nuvoloso Molto Nuvoloso 21 21 100 1018 10 N 0
Ieri h: 21:35 molto_nuvoloso Molto Nuvoloso 21 21 100 1018 14 N 0
Ieri h: 21:15 poco_nuvoloso Poco Nuvoloso 21 21 100 1018 14 N 0
Ieri h: 20:55 sereno Sereno 22 22 100 1018 10 N 0
Ieri h: 20:35 sereno Sereno 22 21 94 1018 10 N 0
Ieri h: 20:15 sereno Sereno 21 21 100 1018 10 N 0
Ieri h: 19:55 poco_nuvoloso Poco Nuvoloso 23 22 94 1018 14 N 0
Ieri h: 19:35 molto_nuvoloso Molto Nuvoloso 23 21 88 1018 10 N 0
Ieri h: 19:15 molto_nuvoloso Molto Nuvoloso 23 22 94 1018 10 N 0
Ieri h: 18:55 molto_nuvoloso Molto Nuvoloso 24 22 88 1018 10 N 0
Ieri h: 18:35 molto_nuvoloso Molto Nuvoloso 24 23 94 1018 14 N 5.5
Ieri h: 18:15 molto_nuvoloso Molto Nuvoloso 24 22 88 1019 10 N 0
Ieri h: 17:55 coperto Coperto 25 22 83 1019 10 N 0
Ieri h: 17:35 molto_nuvoloso Molto Nuvoloso 25 22 83 1019 10 N 5.5
Ieri h: 17:15 coperto Coperto 25 22 83 1019 10 N 5.5
Ieri h: 16:55 coperto Coperto 25 21 78 1019 10 N 0
Ieri h: 16:35 coperto Coperto 25 21 78 1019 14 N 5.5
Ieri h: 16:15 molto_nuvoloso Molto Nuvoloso 25 21 78 1019 10 N 5.5
Ieri h: 15:55 coperto Coperto 25 21 78 1019 10 N 0
Ieri h: 15:35 coperto Coperto 26 21 73 1019 14 E 9.3
Ieri h: 15:15 nuvoloso Nuvoloso 26 21 73 1020 10 N 5.5
Ieri h: 14:55 coperto Coperto 25 20 73 1020 10 N 0
Ieri h: 14:35 coperto Coperto 25 20 73 1020 10 N 0
Ieri h: 14:15 coperto Coperto 24 20 78 1020 10 N 0
Ieri h: 13:55 molto_nuvoloso Molto Nuvoloso 26 19 65 1020 10 N 0
Ieri h: 13:35 coperto Coperto 25 20 73 1020 10 N 0
Ieri h: 13:15 coperto Coperto 24 19 73 1020 10 N 0
Ieri h: 12:55 coperto Coperto 24 19 73 1020 10 N 0
Ieri h: 12:35 coperto Coperto 24 20 78 1020 10 N 0
Ieri h: 12:15 coperto Coperto 24 19 73 1020 10 N 0
Ieri h: 11:55 molto_nuvoloso Molto Nuvoloso 24 19 73 1020 10 N 0
Ieri h: 11:35 poco_nuvoloso Poco Nuvoloso 24 19 73 1020 10 S/SE 7.4
Ieri h: 11:15 molto_nuvoloso Molto Nuvoloso 24 20 78 1020 10 N 0
Ieri h: 10:55 molto_nuvoloso Molto Nuvoloso 23 20 83 1021 10 N 5.5
Ieri h: 10:35 coperto Coperto 23 21 88 1021 10 N 0
Ieri h: 10:15 coperto Coperto 22 20 88 1021 10 N 0
Ieri h: 09:55 coperto Coperto 22 20 88 1021 10 N 5.5
Ieri h: 09:35 coperto Coperto 22 21 94 1020 10 NE 7.4